Flag for U.S.A. Weather past 2 weeks in Omaha, Nebraska, U.S.A.

Now
63 °F

Fog.


Feels Like: 63 °F
Forecast: 57 / 69 °F
Wind: 3 mph from Southeast

Location: Millard Airport

Current Time: May 24, 2015 at 11:09:41 AM

Latest Report: May 24, 2015 at 10:55 AM


Visibility: 4 mi

Pressure: 29.84 "Hg

Humidity: 94%

Dew point: 61 °F

Location of OmahaLocation

Historic Weather in Omaha — Graph

°F

Omaha temperature yesterday

Maximum temperature yesterday: 65 °F (at 6:35 PM)
Minimum temperature yesterday: 57 °F (at 8:15 AM)
Average temperature yesterday: 61 °F

Past Weeks' High & Low Weather Summary

 TemperatureHumidityPressure
High79 °F (May 17, 5:15 PM)98% (May 15, 3:15 AM)30.40 "Hg (May 15, 3:15 AM)
Low37 °F (May 12, 6:35 AM)31% (May 21, 5:55 PM)29.60 "Hg (May 17, 3:15 AM)
Average58 °F73%30.05 "Hg
* Reported May 9 9:15 AM — May 24 9:55 AM, Omaha, Weather by CustomWeather, © 2015

Note: Actual official high and low records may vary slightly from our data, if they occured in-between our weather recording intervals... More about our weather records

Advertising

Omaha weather history for previous 24 hours

 ConditionsComfort  
Time TempWeatherWind HumidityBarometerVisibility
9:55 AM
Sun, May 24
63 °FFog.5 mph93%29.83 "Hg3 mi
9:35 AM62 °FLow clouds.5 mph93%29.84 "Hg7 mi
9:15 AM62 °FLow clouds.5 mph94%29.84 "Hg7 mi
8:55 AM62 °FFog.No wind95%29.85 "Hg4 mi
8:35 AM61 °FFog.3 mph95%29.86 "Hg1 mi
8:15 AM61 °FFog.3 mph95%29.87 "Hg1 mi
7:55 AM61 °FFog.7 mph94%29.88 "Hg2 mi
7:35 AM61 °FMostly cloudy.3 mph94%29.88 "Hg10 mi
7:15 AM61 °FLow clouds.5 mph94%29.88 "Hg10 mi
6:55 AM61 °FLow clouds.3 mph94%29.88 "Hg10 mi
6:35 AM61 °FFog.5 mph94%29.87 "Hg2 mi
6:15 AM61 °FDrizzle. Mostly cloudy.6 mph94%29.87 "Hg3 mi
5:55 AM61 °FFog.6 mph94%29.88 "Hg3 mi
5:15 AM61 °FLow clouds.7 mph94%29.89 "Hg7 mi
4:55 AM61 °FLow clouds.5 mph94%29.89 "Hg10 mi
4:35 AM61 °FLow clouds.6 mph94%29.89 "Hg10 mi
4:15 AM61 °FMostly cloudy.6 mph94%29.90 "Hg7 mi
3:55 AM61 °FDrizzle. Mostly cloudy.7 mph94%29.91 "Hg5 mi
3:15 AM61 °FRain. Mostly cloudy.3 mph93%29.94 "Hg7 mi
2:55 AM61 °FMostly cloudy.6 mph94%29.95 "Hg10 mi
2:35 AM61 °FOvercast.6 mph94%29.96 "Hg10 mi
2:15 AM62 °FOvercast.5 mph93%29.99 "Hg10 mi
1:55 AM62 °FMostly cloudy.No wind92%30.01 "Hg10 mi
1:35 AM62 °FDrizzle. Overcast.3 mph93%30.01 "Hg7 mi
1:15 AM63 °FDrizzle. Mostly cloudy.3 mph90%30.02 "Hg5 mi
12:55 AM64 °FMostly cloudy.7 mph85%30.03 "Hg10 mi
12:35 AM64 °FLight rain. Overcast.10 mph85%30.02 "Hg10 mi
12:15 AM63 °FMostly cloudy.9 mph90%30.02 "Hg10 mi
11:55 PM
Sat, May 23
63 °FOvercast.6 mph90%30.02 "Hg10 mi
11:35 PM63 °FMostly cloudy.No wind90%30.01 "Hg10 mi
11:15 PM63 °FOvercast.5 mph90%30.00 "Hg10 mi
10:55 PM63 °FMostly cloudy.6 mph90%29.98 "Hg10 mi
10:35 PM63 °FMostly cloudy.6 mph91%30.00 "Hg10 mi
10:15 PM63 °FOvercast.5 mph90%30.03 "Hg10 mi
9:55 PM63 °FOvercast.No wind90%30.03 "Hg10 mi
9:15 PM63 °FMostly cloudy.No wind91%30.04 "Hg10 mi
8:55 PM63 °FMostly cloudy.No wind91%30.04 "Hg10 mi
8:15 PM63 °FBroken clouds.5 mph91%30.03 "Hg10 mi
7:55 PM63 °FScattered clouds.7 mph90%30.03 "Hg10 mi
7:35 PM63 °FRain. Cloudy.5 mph89%30.03 "Hg10 mi
7:15 PM64 °FDrizzle. Cloudy.5 mph85%30.03 "Hg7 mi
6:55 PM65 °FRain. Overcast.5 mph81%30.06 "Hg10 mi
6:35 PM65 °FMostly cloudy.5 mph80%30.06 "Hg10 mi
6:15 PM65 °FOvercast.3 mph81%30.07 "Hg10 mi
5:55 PM65 °FOvercast.5 mph78%30.08 "Hg10 mi
5:35 PM65 °FOvercast.3 mph79%30.09 "Hg10 mi
5:15 PM65 °FOvercast.5 mph79%30.10 "Hg10 mi
4:55 PM64 °FOvercast.6 mph80%30.10 "Hg10 mi
4:15 PM64 °FOvercast.3 mph79%30.11 "Hg10 mi
3:55 PM64 °FOvercast.No wind79%30.14 "Hg10 mi
3:35 PM64 °FOvercast.6 mph79%30.12 "Hg10 mi
3:15 PM64 °FOvercast.3 mph80%30.12 "Hg10 mi
2:55 PM63 °FOvercast.7 mph81%30.14 "Hg10 mi
2:15 PM62 °FOvercast.7 mph83%30.15 "Hg10 mi
1:55 PM62 °FOvercast.7 mph83%30.15 "Hg10 mi
1:35 PM61 °FOvercast.9 mph84%30.15 "Hg10 mi
1:15 PM61 °FOvercast.10 mph84%30.15 "Hg10 mi
12:55 PM61 °FOvercast.12 mph84%30.16 "Hg10 mi
12:35 PM60 °FOvercast.8 mph85%30.16 "Hg10 mi
12:15 PM60 °FMostly cloudy.8 mph86%30.17 "Hg10 mi
11:55 AM60 °FOvercast.12 mph86%30.17 "Hg10 mi
11:15 AM59 °FFog.10 mph90%30.19 "Hg5 mi
Weather by CustomWeather, © 2015

See weather overviewHow to use our weather pages